Weather observations for the past three days for
Lawrenceville/Brunswick Municipal Airport
Imperial (Metric)
Date Time (edt) Wind (mph) Vis. (mi.) Weather Sky Cond. Temperature (ºF) Relative Humidity Wind Chill (°F) Heat Index (°F) Pressure Precipitation (in)
Air Dwpt 6 hour altimeter (in) sea level (mb) 1 hr 3 hr 6 hr
Max. Min.
25 12:55 S 6 10.00 Overcast BKN007 OVC014 75.9 74.1 94% 75 30.16 0.0
25 12:35 S 6 10.00 Overcast BKN007 OVC013 76.1 74.5 95% 76 30.16 0.0
25 12:15 SW 3 10.00 Overcast OVC007 75.2 73.8 95% 74 30.17 0.0
25 11:55 S 3 10.00 Overcast OVC007 75 73.9 96% 73 30.17 0.0 0.01
25 11:35 S 5 10.00 Overcast OVC005 75 73.9 96% 73 30.18 0.0 0.01
25 11:15 Calm 10.00 Overcast BKN005 BKN043 OVC090 74.5 73.6 97% 30.18 0.0 0.01
25 10:55 S 3 7.00 Overcast BKN005 BKN012 OVC090 74.5 73.4 96% 30.19 0.0 0.07 0.17
25 10:35 SW 6 7.00 Overcast BKN005 OVC013 74.5 73.6 97% 30.2 0.0 0.05
25 10:15 SW 7 7.00 Overcast BKN005 BKN020 OVC075 74.3 73.4 97% 30.2 0.0 0.03
25 09:55 SW 6 5.00 Overcast OVC005 74.3 73.4 97% 30.2 0.0 0.06
25 09:35 S 5 5.00 Overcast OVC005 74.5 73.4 96% 30.19 0.0 0.02
25 09:15 SW 3 10.00 Overcast BKN003 BKN017 OVC070 74.3 73.4 97% 30.19 0.0
25 08:55 Calm 10.00 Overcast BKN003 BKN020 OVC080 74.1 73 96% 30.18 0.0 0.04
25 08:35 SW 3 7.00 Overcast BKN003 BKN029 OVC060 73.8 72.9 97% 30.19 0.0 0.03
25 08:15 SW 3 10.00 Overcast SCT005 BKN060 OVC080 73.8 72.9 97% 30.19 0.0 0.01
25 07:55 SW 5 7.00 Overcast SCT005 BKN060 OVC100 73.6 72.7 73.6 72.9 97% 30.18 0.0 0.79
25 07:35 SW 3 10.00 Overcast SCT006 BKN075 OVC110 73.6 72.5 96% 30.18 0.0
25 07:15 Calm 10.00 Overcast SCT004 SCT060 OVC110 73.6 72.5 96% 30.17 0.0
25 06:55 SW 3 10.00 Overcast BKN004 BKN060 OVC120 73.4 72.5 97% 30.16 0.0
25 06:35 Calm 10.00 Overcast OVC004 73.4 72.5 97% 30.16 0.0
25 06:15 Calm 10.00 Overcast BKN004 BKN009 OVC055 73.4 72.5 97% 30.16 0.0
25 05:55 SW 3 10.00 Overcast BKN002 BKN049 OVC070 73.4 72.5 97% 30.16 0.0 0.01
25 05:35 S 3 10.00 Overcast SCT002 OVC080 73.4 72.5 97% 30.16 0.0
25 05:15 Calm 10.00 Overcast BKN080 OVC090 73.4 72.5 97% 30.16 0.0
25 04:55 Calm 10.00 Overcast OVC080 73.4 72.3 96% 30.16 0.0 0.05 0.78
25 04:35 Calm 10.00 Overcast SCT080 OVC090 73.2 72.1 96% 30.16 0.0 0.04
25 04:15 S 3 7.00 Overcast SCT016 BKN075 OVC100 73.4 72.1 96% 30.17 0.0 0.03
25 03:55 S 7 2.00 Overcast SCT015 BKN042 OVC050 73.2 72.1 96% 30.18 0.0 0.55
25 03:35 W 5 4.00 Overcast SCT003 BKN046 OVC050 73.4 72.5 97% 30.18 0.0 0.32
25 03:15 SW 7 2.50 Overcast SCT025 BKN035 OVC060 73.4 72.5 97% 30.18 0.0 0.21
25 02:55 W 3 2.50 Overcast SCT030 BKN080 OVC110 73.4 72.1 96% 30.17 0.0 0.17
25 02:35 Calm 7.00 Overcast OVC110 73.4 72.1 96% 30.17 0.0 0.06
25 02:15 Calm 7.00 Overcast SCT065 SCT080 OVC110 73.4 72.1 96% 30.18 0.0 0.03
25 01:55 Calm 5.00 Overcast SCT040 BKN065 OVC075 72.7 71.6 81.9 71.8 96% 30.19 0.0 0.75 0.91
25 01:35 SW 5 3.00 Overcast SCT008 BKN039 OVC047 72.1 70.3 94% 30.21 0.0 0.67
25 01:15 SW 14 G 21 4.00 Overcast SCT006 BKN037 OVC050 74.5 73.2 96% 30.21 0.0 0.12
25 00:55 S 6 10.00 Mostly Cloudy BKN039 BKN045 74.3 72.9 95% 30.19 0.0
25 00:35 S 3 10.00 Partly Cloudy SCT041 SCT100 73.8 72.7 96% 30.18 0.0
25 00:15 Calm 10.00 Fair CLR 73.6 72.5 96% 30.19 0.0
24 23:55 Calm 10.00 Partly Cloudy SCT003 SCT120 73.4 72.3 96% 30.18 0.0
24 23:35 SE 5 10.00 Partly Cloudy SCT003 73.6 72.3 96% 30.17 0.0
24 23:15 Calm 10.00 Fair CLR 73.4 72 95% 30.16 0.0
24 22:55 Calm 10.00 Fair CLR 73.6 72.1 95% 30.17 0.0 0.02 0.16
24 22:35 S 5 10.00 Partly Cloudy SCT070 SCT090 SCT110 73.6 72 95% 30.16 0.0 0.02
24 22:15 Calm 10.00 Mostly Cloudy SCT070 SCT085 BKN110 73.8 71.8 94% 30.16 0.0 0.02
24 21:55 S 5 7.00 Overcast OVC110 73.4 72 95% 30.19 0.0 0.1
24 21:35 S 5 7.00 Overcast OVC100 73.4 71.6 94% 30.19 0.0 0.08
24 21:15 SW 5 7.00 Overcast SCT060 SCT075 OVC100 73.4 71.4 94% 30.19 0.0 0.04
24 20:55 SW 6 7.00 Overcast SCT046 BKN075 OVC120 73.4 70.9 92% 30.19 0.0 0.04
24 20:35 NW 7 G 18 7.00 Mostly Cloudy SCT036 BKN047 BKN065 74.7 71.1 89% 30.19 0.0
24 20:15 SW 3 10.00 Partly Cloudy SCT080 SCT120 81.7 76.1 83% 89 30.15 0.0
24 19:55 S 3 10.00 Partly Cloudy SCT047 SCT055 SCT120 82 76.5 88.9 82 83% 90 30.14 0.0
24 19:35 Calm 10.00 Mostly Cloudy SCT038 SCT044 BKN120 82.8 76.5 81% 91 30.14 0.0
24 19:15 Calm 10.00 Mostly Cloudy SCT037 BKN046 83.5 76.8 80% 93 30.14 0.0
24 18:55 S 3 10.00 Mostly Cloudy SCT028 SCT037 BKN046 84.6 76.6 77% 94 30.12 0.0
24 18:35 S 3 10.00 Mostly Cloudy SCT028 SCT035 BKN048 86.2 76.8 74% 97 30.12 0.0
24 18:15 S 3 10.00 Mostly Cloudy SCT026 BKN033 BKN048 85.6 76.6 75% 96 30.11 0.0
24 17:55 S 7 10.00 Mostly Cloudy SCT027 SCT037 BKN050 87.6 76.5 70% 99 30.12 0.0
24 17:35 SW 5 10.00 Mostly Cloudy SCT033 SCT039 BKN048 86.4 75.9 71% 96 30.12 0.0
24 17:15 S 5 10.00 Mostly Cloudy SCT032 BKN038 BKN045 86.5 75.6 70% 96 30.12 0.0
24 16:55 S 6 10.00 Mostly Cloudy BKN036 87.3 74.7 66% 96 30.11 0.0
24 16:35 SW 9 10.00 Partly Cloudy SCT032 87.4 74.3 65% 96 30.12 0.0
24 16:15 SW 12 G 16 10.00 Partly Cloudy SCT030 SCT038 SCT055 88 74.7 65% 97 30.12 0.0
24 15:55 SW 9 10.00 Mostly Cloudy SCT028 SCT039 BKN060 87.1 75.2 68% 97 30.13 0.0
24 15:35 SW 10 10.00 Mostly Cloudy SCT028 BKN039 87.8 75.7 68% 98 30.14 0.0
24 15:15 SW 9 10.00 Mostly Cloudy SCT028 BKN039 BKN048 87.6 75.9 68% 98 30.14 0.0
24 14:55 S 10 10.00 Mostly Cloudy SCT028 BKN039 BKN047 87.3 75.6 68% 97 30.14 0.0
24 14:35 SW 8 G 17 10.00 Mostly Cloudy SCT028 BKN035 BKN043 87.1 74.5 66% 96 30.15 0.0
24 14:15 SW 12 10.00 Partly Cloudy SCT025 SCT035 SCT043 87.6 75.9 68% 98 30.15 0.0
24 13:55 SW 10 10.00 Mostly Cloudy SCT025 BKN034 BKN044 86.2 75.6 86.2 75.7 71% 96 30.16 0.0
24 13:35 SW 9 10.00 Mostly Cloudy SCT023 BKN034 BKN047 85.1 75 72% 94 30.16 0.0
24 13:15 S 6 10.00 Mostly Cloudy SCT021 SCT030 BKN036 85.1 76.1 75% 95 30.17 0.0
24 12:55 S 8 10.00 Overcast SCT016 BKN022 OVC040 84.2 75.4 75% 93 30.17 0.0
24 12:35 S 8 10.00 Overcast BKN016 BKN023 OVC035 84.2 75.9 76% 93 30.18 0.0
24 12:15 SW 7 10.00 Overcast BKN016 BKN026 OVC031 82.6 75.9 80% 90 30.18 0.0
24 11:55 SW 7 10.00 Overcast SCT016 BKN025 OVC031 82.6 75.6 79% 90 30.18 0.0
24 11:15 SW 7 10.00 Overcast SCT015 BKN021 OVC029 80.8 75.2 83% 87 30.18 0.0
24 10:55 SW 6 10.00 Overcast BKN013 OVC022 81.5 75.6 82% 88 30.16 0.0
24 10:35 SW 6 10.00 Overcast BKN009 BKN016 OVC021 80.8 75.7 85% 87 30.16 0.0
24 10:15 SW 7 10.00 Overcast BKN009 OVC021 79 75.7 90% 83 30.16 0.0
24 09:55 SW 6 10.00 Overcast BKN009 BKN016 OVC021 78.8 75.4 89% 82 30.16 0.0
24 09:35 SW 7 10.00 Overcast OVC007 77.9 75 91% 80 30.15 0.0
24 09:15 SW 6 10.00 Overcast OVC005 77.4 75.2 93% 79 30.15 0.0
24 08:55 SW 5 10.00 Overcast OVC005 77 74.8 93% 78 30.16 0.0
24 08:35 SW 6 10.00 Overcast OVC005 76.6 74.7 94% 77 30.16 0.0
24 08:15 SW 5 10.00 Overcast OVC005 76.1 74.5 95% 76 30.16 0.0
24 07:55 SW 7 10.00 Overcast OVC005 75.7 74.3 75.7 73.6 95% 75 30.15 0.0 0.01
24 07:35 S 7 10.00 Overcast OVC005 75.2 74.1 96% 73 30.15 0.0
24 07:15 S 3 10.00 Overcast OVC005 74.7 73.6 96% 30.14 0.0
24 06:55 S 3 10.00 Overcast OVC005 74.3 73.4 97% 30.14 0.0
24 06:35 SW 3 10.00 Overcast BKN005 OVC010 74.3 73.2 96% 30.14 0.0
24 06:15 S 5 10.00 Overcast OVC005 73.9 72.9 96% 30.14 0.0
24 05:55 S 5 10.00 Overcast OVC005 73.8 72.7 96% 30.14 0.0
24 05:35 S 5 10.00 Partly Cloudy SCT005 73.8 72.7 96% 30.14 0.0
24 05:15 S 5 10.00 Partly Cloudy SCT003 73.8 72.7 96% 30.14 0.0
24 04:55 S 5 10.00 Partly Cloudy SCT002 SCT008 SCT020 73.8 72.7 96% 30.13 0.0 0.01
24 04:35 S 3 10.00 Partly Cloudy SCT002 SCT008 SCT020 73.8 72.7 96% 30.13 0.0
24 04:15 S 5 10.00 Fair CLR 74.1 72.7 95% 30.13 0.0
24 03:55 SW 3 10.00 Fair CLR 74.3 72.9 95% 30.12 0.0
24 03:35 SW 3 10.00 Fair CLR 74.5 72.9 95% 30.12 0.0
24 03:15 SW 3 10.00 Partly Cloudy SCT120 74.7 73.2 95% 30.12 0.0
24 02:55 SW 6 10.00 Mostly Cloudy SCT008 SCT044 BKN120 75.2 73.6 95% 74 30.12 0.0 0.01
24 02:35 S 6 10.00 Overcast OVC008 75.6 74.3 96% 74 30.14 0.0 0.01
24 02:15 S 6 10.00 Overcast BKN008 OVC044 75.7 74.5 96% 75 30.14 0.0 0.01
24 01:55 S 3 10.00 Mostly Cloudy SCT010 SCT033 BKN049 75.4 74.3 77.9 75.2 96% 74 30.12 0.0 0.01 0.02
24 01:35 S 5 10.00 Partly Cloudy SCT048 SCT065 SCT110 75.6 74.5 96% 74 30.12 0.0
24 01:15 S 5 10.00 Partly Cloudy SCT004 SCT110 75.7 74.7 96% 75 30.12 0.0
24 00:55 S 3 10.00 Mostly Cloudy SCT004 BKN110 75.7 74.8 97% 75 30.12 0.0
24 00:35 Calm 10.00 Overcast OVC006 75.7 74.8 97% 75 30.14 0.0
24 00:15 Calm 10.00 Overcast OVC006 75.7 74.8 97% 75 30.12 0.0
23 23:55 Calm 10.00 Overcast BKN008 OVC013 75.4 74.5 97% 74 30.12 0.0 0.01
23 23:35 Calm 10.00 Mostly Cloudy SCT004 BKN013 BKN018 75.4 74.3 96% 74 30.13 0.0 0.01
23 22:55 Calm 10.00 Mostly Cloudy SCT002 SCT020 BKN065 75.6 74.5 96% 74 30.12 0.0
23 22:35 S 3 10.00 Overcast BKN002 OVC020 76.1 74.8 96% 76 30.12 0.0
23 22:15 Calm 10.00 Mostly Cloudy BKN002 BKN075 76.1 74.7 95% 76 30.12 0.0
23 21:55 Calm 10.00 Partly Cloudy SCT004 SCT075 76.1 74.7 95% 76 30.12 0.0
23 21:35 E 3 10.00 Mostly Cloudy SCT004 BKN100 76.1 74.7 95% 76 30.12 0.0
23 21:15 Calm 10.00 Partly Cloudy SCT004 SCT100 76.3 74.7 95% 76 30.11 0.0
23 20:55 Calm 10.00 Fair CLR 76.6 74.5 93% 77 30.11 0.0
23 20:35 Calm 10.00 Fair CLR 77 75.2 94% 78 30.1 0.0
23 20:15 Calm 10.00 Fair CLR 77.4 75.7 95% 79 30.09 0.0
23 19:55 Calm 10.00 Partly Cloudy SCT110 77.9 76.1 88 77.9 94% 80 30.08 0.0 0.05
23 19:35 Calm 10.00 Mostly Cloudy BKN110 78.3 75.6 91% 81 30.09 0.0
23 19:15 Calm 10.00 Partly Cloudy SCT120 79 75.6 89% 83 30.08 0.0
23 18:55 Calm 10.00 Partly Cloudy SCT120 80.1 75.9 87% 85 30.08 0.0
23 18:35 Calm 10.00 Partly Cloudy SCT007 SCT120 80.1 76.5 89% 86 30.09 0.0
23 18:15 SE 5 10.00 Mostly Cloudy SCT007 SCT070 BKN120 80.1 76.6 89% 86 30.09 0.0
23 17:55 S 10 10.00 Mostly Cloudy SCT005 SCT042 BKN090 80.6 77.5 90% 87 30.09 0.0 0.04
23 17:35 W 3 7.00 Overcast SCT037 SCT049 OVC100 79.5 77.2 93% 85 30.08 0.0 0.04
23 17:15 S 5 7.00 Overcast SCT039 BKN080 OVC110 78.4 77 95% 82 30.09 0.0 0.01
23 16:55 Calm 10.00 Overcast SCT047 BKN085 OVC120 79.3 77.4 94% 84 30.06 0.0 0.01
23 16:35 Calm 10.00 Overcast SCT065 SCT085 OVC120 79.2 76.5 91% 84 30.06 0.0
23 16:15 Calm 10.00 Overcast SCT037 BKN085 OVC120 80.4 75.7 86% 86 30.07 0.0
23 15:55 Calm 10.00 Overcast SCT036 BKN049 OVC085 81.1 75.9 84% 88 30.08 0.0 0.01
23 15:35 Calm 10.00 Mostly Cloudy SCT050 SCT070 BKN100 81.3 74.1 79% 87 30.08 0.0
23 15:15 S 5 10.00 Partly Cloudy SCT050 SCT060 SCT085 81.7 74.1 78% 88 30.08 0.0
23 14:55 S 6 7.00 Overcast SCT040 SCT050 OVC060 82 75.6 81% 89 30.07 0.0
23 14:35 Calm 10.00 Overcast SCT035 BKN046 OVC070 83.5 77.2 81% 93 30.07 0.0
23 14:15 S 3 10.00 Mostly Cloudy SCT033 BKN049 BKN075 86.9 77.5 74% 99 30.07 0.0
23 13:55 Calm 10.00 Mostly Cloudy SCT037 SCT060 BKN095 87.1 77 90 77.4 72% 99 30.08 0.0
23 13:35 Calm 10.00 Mostly Cloudy SCT032 BKN042 BKN055 88 75.4 66% 98 30.08 0.0
23 13:15 SW 3 10.00 Mostly Cloudy BKN030 BKN043 BKN060 89.1 75.2 64% 99 30.09 0.0
23 12:55 S 5 10.00 Mostly Cloudy BKN028 BKN034 BKN040 90 75.6 63% 101 30.1 0.0
23 12:35 W 3 10.00 Mostly Cloudy BKN028 BKN038 BKN044 88.7 74.8 64% 99 30.1 0.0
23 12:15 SW 7 10.00 Partly Cloudy SCT028 SCT036 SCT044 89.1 75.9 65% 100 30.1 0.0
23 11:55 SW 5 10.00 Partly Cloudy SCT028 SCT032 87.8 75.4 67% 98 30.1 0.0
23 11:35 S 8 10.00 Partly Cloudy SCT023 87.4 75.7 68% 98 30.1 0.0
23 11:15 W 3 10.00 Mostly Cloudy BKN020 85.3 75.2 72% 94 30.1 0.0
23 10:55 Calm 10.00 Partly Cloudy SCT020 85.5 75.6 72% 95 30.1 0.0
23 10:35 SW 6 10.00 Fair CLR 84.7 75.7 75% 94 30.1 0.0
23 10:15 SW 6 10.00 Partly Cloudy SCT014 83.7 75 75% 91 30.1 0.0
23 09:55 SW 6 10.00 Partly Cloudy SCT014 SCT018 83.3 75.9 79% 92 30.1 0.0
23 09:35 S 5 10.00 Partly Cloudy SCT010 81.9 75.6 81% 89 30.1 0.0
23 09:15 S 5 10.00 Mostly Cloudy BKN010 81.5 75.6 82% 88 30.1 0.0
23 08:55 SW 6 10.00 Partly Cloudy SCT008 79.7 74.8 85% 84 30.1 0.0
23 08:35 SW 7 10.00 Mostly Cloudy BKN006 79 75.6 89% 83 30.1 0.0
23 08:15 SW 5 10.00 Overcast OVC006 78.1 75 90% 81 30.1 0.0
23 07:55 SW 7 10.00 Overcast OVC006 77.2 74.7 77.2 74.5 92% 79 30.1 0.0
23 07:35 SW 6 10.00 Overcast OVC004 76.3 74.5 94% 76 30.09 0.0
23 07:15 Calm 10.00 Overcast OVC004 75.7 74.7 96% 75 30.08 0.0
23 06:55 Calm 7.00 Mostly Cloudy BKN004 75.2 74.3 97% 73 30.07 0.0
23 06:35 S 3 7.00 Partly Cloudy SCT004 75 73.9 96% 73 30.07 0.0
23 06:15 Calm 10.00 Partly Cloudy SCT004 75.2 73.9 96% 73 30.07 0.0
23 05:55 Calm 10.00 Mostly Cloudy BKN004 BKN015 75.2 73.9 96% 73 30.06 0.0
23 05:35 S 3 10.00 Overcast SCT004 OVC015 75.2 73.9 96% 73 30.06 0.0
23 05:15 S 5 10.00 Overcast BKN008 OVC013 75.6 74.5 96% 74 30.05 0.0
23 04:55 S 3 10.00 Overcast OVC008 75.4 74.3 96% 74 30.05 0.0
23 04:35 SW 6 10.00 Overcast OVC006 75.2 74.3 97% 73 30.05 0.0
23 04:15 S 3 10.00 Overcast OVC006 75.2 73.9 96% 73 30.05 0.0
23 03:55 Calm 10.00 Overcast OVC006 74.8 73.9 97% 30.04 0.0
23 03:35 Calm 10.00 Mostly Cloudy BKN006 74.8 73.8 96% 30.04 0.0
23 03:15 Calm 10.00 Partly Cloudy SCT006 SCT049 74.8 73.8 96% 30.04 0.0
23 02:55 SW 3 10.00 Partly Cloudy SCT008 SCT049 75.2 73.8 95% 74 30.04 0.0
23 02:35 SW 3 10.00 Mostly Cloudy BKN008 75.4 73.9 95% 74 30.04 0.0
23 02:15 S 5 10.00 Overcast OVC008 75.4 73.9 95% 74 30.04 0.0
23 01:55 SW 7 10.00 Overcast OVC008 75.6 74.1 77.4 74.8 95% 74 30.04 0.0
23 01:35 SW 6 10.00 Overcast OVC008 75.6 73.9 95% 74 30.04 0.0
23 01:15 SW 6 10.00 Mostly Cloudy BKN008 75.4 73.8 95% 74 30.04 0.0
23 00:55 S 7 10.00 Partly Cloudy SCT006 75.2 73.8 95% 74 30.04 0.0
23 00:35 S 5 10.00 Partly Cloudy SCT008 75 73.6 95% 73 30.04 0.0
23 00:15 S 6 10.00 Mostly Cloudy BKN008 75.2 73.6 95% 74 30.04 0.0
22 23:55 Calm 10.00 Mostly Cloudy BKN010 75.2 73.6 95% 74 30.04 0.0
22 23:35 SW 3 10.00 Mostly Cloudy BKN012 75.4 73.8 95% 74 30.04 0.0
22 23:15 S 5 10.00 Partly Cloudy SCT012 75.2 73.4 94% 74 30.04 0.0
22 22:55 S 5 10.00 Fair CLR 75.4 73.4 94% 74 30.04 0.0
22 22:35 S 5 10.00 Partly Cloudy SCT085 75.2 73.4 94% 74 30.05 0.0
22 22:15 S 5 10.00 Fair CLR 75.4 73.4 94% 74 30.04 0.0
22 21:55 SW 5 10.00 Fair CLR 75.2 73.4 94% 74 30.04 0.0
22 21:35 S 5 10.00 Fair CLR 75.2 73.4 94% 74 30.03 0.0
22 21:15 S 5 10.00 Fair CLR 75.2 73.4 94% 74 30.02 0.0
22 20:55 S 3 10.00 Fair CLR 75.6 73.4 93% 75 30 0.0
22 20:35 S 5 10.00 Partly Cloudy SCT010 76.1 73.4 91% 76 29.99 0.0
22 20:15 S 7 10.00 Overcast OVC008 76.8 73.6 90% 78 29.99 0.0
22 19:55 S 7 10.00 Mostly Cloudy BKN008 77.4 74.3 86 77 90% 79 30 0.0 0.04
22 19:35 Calm 10.00 Partly Cloudy SCT008 77.5 74.5 90% 79 29.99 0.0
22 19:15 S 5 10.00 Partly Cloudy SCT008 SCT011 77.2 74.1 90% 79 29.99 0.0
22 18:55 S 5 10.00 Partly Cloudy SCT010 78.8 74.1 86% 82 30 0.0
22 18:35 S 6 10.00 Partly Cloudy SCT012 80.4 74.5 82% 85 30 0.0
22 18:15 S 6 10.00 Fair CLR 79.9 75.4 86% 85 30 0.0
22 17:55 S 5 10.00 Fair CLR 79.2 75.7 89% 83 30 0.0 0.02
22 17:35 S 6 10.00 Partly Cloudy SCT036 SCT050 SCT070 77.9 75.7 93% 80 30.01 0.0 0.02
22 17:15 S 6 10.00 Mostly Cloudy SCT045 SCT070 BKN110 78.1 76.1 94% 81 29.99 0.0 0.02
22 16:55 S 3 10.00 Partly Cloudy SCT095 SCT120 78.6 75.6 90% 82 29.99 0.0 0.02 0.02
22 16:35 SW 6 10.00 Overcast SCT060 SCT080 OVC095 80.6 77.2 89% 87 30 0.0 0.01
22 16:15 S 3 10.00 Overcast SCT046 SCT065 OVC095 82.4 75.7 80% 90 30 0.0
22 15:55 SW 3 10.00 Overcast SCT050 SCT065 OVC075 83.5 75.4 77% 91 30 0.0
22 15:35 SW 5 10.00 Overcast SCT026 BKN070 OVC085 83.8 74.5 74% 91 30.01 0.0
22 15:15 S 5 10.00 Overcast SCT026 BKN036 OVC080 85.1 74.5 71% 93 30.01 0.0
22 14:55 S 3 10.00 Mostly Cloudy BKN022 BKN028 BKN037 85.1 74.1 70% 93 30.01 0.0
22 14:35 S 5 10.00 Mostly Cloudy SCT022 SCT026 BKN100 86 74.5 69% 94 30.01 0.0
22 14:15 S 9 10.00 Mostly Cloudy SCT022 BKN080 BKN110 85.3 74.8 71% 94 30.03 0.0
22 13:55 S 6 10.00 Overcast BKN019 BKN027 OVC080 83.5 74.5 83.5 73.8 74% 91 30.04 0.0 0.03
22 13:35 S 6 10.00 Overcast SCT019 BKN029 OVC090 82.8 74.5 76% 90 30.05 0.0
Date Time (edt) Wind (mph) Vis. (mi.) Weather Sky Cond. Air Dwpt Max. Min. Relative Humidity Wind Chill (°F) Heat Index (°F) altimeter (in) sea level (mb) 1 hr 3 hr 6 hr
6 hour
Temperature (ºF) Pressure Precipitation (in)